Weather History for Tallahassee, FL

Change the Weather History Date:

Tuesday, November 20, 2012

  Actual Average Record
Temperature  
Mean Temperature 63 °F 59 °F  
Max Temperature 70 °F 72 °F 84 °F (1941)
Min Temperature 55 °F 46 °F 26 °F (1968)
Degree Days  
Heating Degree Days 2    
Month to date heating degree days 118  
Since 1 July heating degree days 160  
Cooling Degree Days 0    
Month to date cooling degree days 15  
Year to date cooling degree days 2958  
Growing Degree Days 12 (Base 50)    
Moisture  
Dew Point 53 °F    
Average Humidity 70    
Maximum Humidity 87    
Minimum Humidity 53    
Precipitation  
Precipitation 0.01 in 0.12 in 2.46 in (1983)
Month to date precipitation 0.24 2.25  
Year to date precipitation 55.94 54.08  
Sea Level Pressure  
Sea Level Pressure 30.12 in    
Wind  
Wind Speed 2 mph (North)    
Max Wind Speed 5 mph    
Max Gust Speed 7 mph    
Visibility 10 miles    
Events Rain    
T = Trace of Precipitation, MM = Missing Value Source: NWS Daily Summary

Daily Weather History Graph

Daily Weather History Graph

Search for Another Location

Airport:

Trip Planner

Search our weather history database for the weather conditions in past years. The results will help you decide how hot, cold, wet, or windy it might be!

Date:

Astronomy

Nov. 20, 2012 Rise Set
Actual Time 7:07 AM EST 5:38 PM EST
Civil Twilight 6:42 AM EST 6:03 PM EST
Nautical Twilight 6:12 AM EST 6:33 PM EST
Astronomical Twilight 5:44 AM EST 7:01 PM EST
Moon 12:56 PM EST (11/20) No Moon Set
Length of Visible Light 11h 21m
Length of Day
10h 30m
Waxing Crescent, 51% of the Moon is Illuminated
Nov 20
Waxing Crescent
Nov 28
Full
Dec 6
Last Quarter
Dec 13
New
Dec 20
First Quarter

Hourly Weather History & Observations

Time (EST) Temp. Dew Point Humidity Pressure Visibility Wind Dir Wind Speed Gust Speed Precip Events Conditions
12:53 AM 59.0 °F 51.1 °F 75% 30.14 in 10.0 mi Calm Calm - N/A   Overcast
1:53 AM 59.0 °F 52.0 °F 78% 30.14 in 10.0 mi Calm Calm - N/A   Overcast
2:53 AM 60.1 °F 52.0 °F 75% 30.13 in 10.0 mi Calm Calm - N/A   Overcast
3:53 AM 60.1 °F 52.0 °F 75% 30.13 in 10.0 mi Calm Calm - N/A   Overcast
4:53 AM 57.9 °F 52.0 °F 81% 30.12 in 10.0 mi West 3.5 mph - N/A   Overcast
5:53 AM 59.0 °F 52.0 °F 78% 30.13 in 10.0 mi Calm Calm - N/A   Overcast
6:53 AM 57.2 °F 53.6 °F 88% 30.14 in 10.0 mi Calm Calm - N/A   Overcast
7:53 AM 60.1 °F 53.1 °F 78% 30.15 in 10.0 mi Calm Calm - N/A   Overcast
8:53 AM 61.0 °F 53.1 °F 75% 30.17 in 10.0 mi Calm Calm - N/A   Overcast
9:53 AM 62.1 °F 53.1 °F 72% 30.18 in 10.0 mi North 3.5 mph - N/A   Overcast
10:53 AM 64.0 °F 53.1 °F 67% 30.17 in 10.0 mi NE 3.5 mph - N/A   Overcast
11:53 AM 66.9 °F 52.0 °F 59% 30.14 in 10.0 mi NE 3.5 mph - N/A   Overcast
12:53 PM 68.0 °F 51.1 °F 55% 30.12 in 10.0 mi NNW 6.9 mph - N/A   Overcast
1:53 PM 70.0 °F 51.1 °F 51% 30.09 in 10.0 mi North 10.4 mph - N/A   Overcast
2:53 PM 70.0 °F 51.1 °F 51% 30.07 in 10.0 mi NE 5.8 mph - N/A   Overcast
3:53 PM 69.1 °F 51.1 °F 53% 30.06 in 10.0 mi NE 6.9 mph - N/A   Mostly Cloudy
4:53 PM 68.0 °F 51.1 °F 55% 30.07 in 10.0 mi NNE 3.5 mph - N/A   Mostly Cloudy
5:53 PM 66.0 °F 52.0 °F 60% 30.07 in 10.0 mi Calm Calm - N/A   Overcast
6:53 PM 62.1 °F 57.0 °F 84% 30.09 in 10.0 mi Calm Calm - 0.00 in Rain Light Rain
7:53 PM 61.0 °F 55.9 °F 83% 30.09 in 10.0 mi Calm Calm - 0.00 in Rain Light Rain
8:53 PM 61.0 °F 57.0 °F 87% 30.10 in 10.0 mi NNW 3.5 mph - 0.00 in   Overcast
9:53 PM 60.1 °F 55.9 °F 86% 30.12 in 10.0 mi NW 3.5 mph - 0.01 in   Overcast
10:53 PM 59.0 °F 55.9 °F 90% 30.11 in 10.0 mi Calm Calm - 0.00 in   Scattered Clouds
11:53 PM 55.9 °F 54.0 °F 93% 30.11 in 6.0 mi Calm Calm - N/A   Scattered Clouds